• In Italy
  • List of Countries
  • For 7 days
  • Water Temperature
  • Satellite Maps
  • Weather Map
  • Weather Widgets
  • user-avatar
    Login

    Hourly Weather Jalalabad

    Today, 21 January, Sunday

    Time Temperature Precipitation Wind Pressure Humidity
    00:00 +14°C° 0 mm 2 mps 708 mmHg 14%
    01:00 +13°C° 0 mm 2 mps 708 mmHg 14%
    02:00 +13°C° 0 mm 2 mps 708 mmHg 13%
    03:00 +13°C° 0 mm 2 mps 708 mmHg 13%
    04:00 +13°C° 0 mm 2 mps 708 mmHg 12%
    05:00 +13°C° 0 mm 2 mps 707 mmHg 11%
    06:00 +13°C° 0 mm 2 mps 707 mmHg 11%
    07:00 +13°C° 0 mm 2 mps 707 mmHg 11%
    08:00 +13°C° 0 mm 2 mps 708 mmHg 10%
    09:00 +15°C° 0 mm 2 mps 708 mmHg 9%
    10:00 +18°C° 0 mm 2 mps 708 mmHg 8%
    11:00 +22°C° 0 mm 1 mps 709 mmHg 7%
    12:00 +22°C° 0 mm 1 mps 708 mmHg 8%
    13:00 +23°C° 0 mm 1 mps 708 mmHg 8%
    14:00 +23°C° 0 mm 1 mps 708 mmHg 8%
    15:00 +22°C° 0 mm 1 mps 708 mmHg 10%
    16:00 +21°C° 0 mm 1 mps 708 mmHg 13%
    17:00 +19°C° 0 mm 1 mps 707 mmHg 14%
    18:00 +18°C° 0 mm 1 mps 708 mmHg 14%
    19:00 +16°C° 0 mm 1 mps 708 mmHg 15%
    20:00 +15°C° 0 mm 2 mps 709 mmHg 16%
    21:00 +14°C° 0 mm 2 mps 709 mmHg 16%
    22:00 +14°C° 0 mm 2 mps 709 mmHg 16%
    23:00 +14°C° 0 mm 2 mps 709 mmHg 17%

    Tomorrow, 22 January, Monday

    Time Temperature Precipitation Wind Pressure Humidity
    00:00 +13°C° 0 mm 2 mps 709 mmHg 17%
    01:00 +13°C° 0 mm 2 mps 708 mmHg 17%
    02:00 +12°C° 0 mm 2 mps 708 mmHg 17%
    03:00 +12°C° 0 mm 2 mps 708 mmHg 17%
    04:00 +12°C° 0 mm 2 mps 708 mmHg 17%
    05:00 +10°C° 0 mm 2 mps 708 mmHg 16%
    06:00 +10°C° 0 mm 2 mps 708 mmHg 16%
    07:00 +12°C° 0 mm 2 mps 708 mmHg 16%
    08:00 +12°C° 0 mm 2 mps 708 mmHg 15%
    09:00 +14°C° 0 mm 2 mps 708 mmHg 14%
    10:00 +16°C° 0 mm 2 mps 708 mmHg 12%
    11:00 +18°C° 0 mm 2 mps 708 mmHg 10%
    12:00 +18°C° 0 mm 2 mps 707 mmHg 10%
    13:00 +20°C° 0 mm 1 mps 706 mmHg 10%
    14:00 +21°C° 0 mm 1 mps 706 mmHg 10%
    15:00 +20°C° 0 mm 1 mps 706 mmHg 12%
    16:00 +19°C° 0 mm 1 mps 706 mmHg 14%
    17:00 +19°C° 0 mm 1 mps 706 mmHg 16%
    18:00 +16°C° 0 mm 1 mps 706 mmHg 16%
    19:00 +15°C° 0 mm 2 mps 707 mmHg 17%
    20:00 +13°C° 0 mm 2 mps 707 mmHg 18%
    21:00 +13°C° 0 mm 2 mps 707 mmHg 17%
    22:00 +12°C° 0 mm 2 mps 707 mmHg 17%
    23:00 +12°C° 0 mm 2 mps 707 mmHg 17%

    Day after tomorrow, 23 January, Tuesday

    Time Temperature Precipitation Wind Pressure Humidity
    00:00 +12°C° 0 mm 2 mps 707 mmHg 17%
    01:00 +10°C° 0 mm 2 mps 707 mmHg 16%
    02:00 +10°C° 0 mm 2 mps 707 mmHg 16%
    03:00 +9°C° 0 mm 2 mps 707 mmHg 16%
    04:00 +9°C° 0 mm 2 mps 707 mmHg 15%
    05:00 +9°C° 0 mm 2 mps 707 mmHg 15%
    06:00 +9°C° 0 mm 2 mps 708 mmHg 15%
    07:00 +9°C° 0 mm 2 mps 708 mmHg 15%
    08:00 +9°C° 0 mm 2 mps 708 mmHg 15%
    09:00 +12°C° 0 mm 2 mps 708 mmHg 14%
    10:00 +14°C° 0 mm 2 mps 708 mmHg 13%
    11:00 +16°C° 0 mm 2 mps 708 mmHg 12%
    12:00 +16°C° 0 mm 2 mps 708 mmHg 13%
    13:00 +17°C° 0 mm 2 mps 707 mmHg 13%
    14:00 +17°C° 0 mm 2 mps 707 mmHg 13%
    15:00 +17°C° 0 mm 2 mps 706 mmHg 14%
    16:00 +16°C° 0 mm 2 mps 706 mmHg 16%
    17:00 +16°C° 0 mm 1 mps 706 mmHg 17%
    18:00 +15°C° 0 mm 2 mps 707 mmHg 18%
    19:00 +13°C° 0 mm 2 mps 707 mmHg 19%
    20:00 +12°C° 0 mm 2 mps 707 mmHg 20%
    21:00 +11°C° 0 mm 1 mps 707 mmHg 20%
    22:00 +11°C° 0 mm 1 mps 707 mmHg 20%
    23:00 +11°C° 0 mm 1 mps 707 mmHg 20%

    24 January, Wednesday

    Time Temperature Precipitation Wind Pressure Humidity
    00:00 +10°C° 0 mm 1 mps 707 mmHg 20%
    01:00 +10°C° 0 mm 1 mps 707 mmHg 20%
    02:00 +10°C° 0 mm 1 mps 706 mmHg 20%
    03:00 +9°C° 0 mm 1 mps 706 mmHg 20%
    04:00 +9°C° 0 mm 1 mps 706 mmHg 20%
    05:00 +9°C° 0 mm 1 mps 706 mmHg 20%
    06:00 +9°C° 0 mm 1 mps 706 mmHg 20%
    07:00 +9°C° 0 mm 1 mps 706 mmHg 20%
    08:00 +9°C° 0 mm 1 mps 707 mmHg 20%
    09:00 +12°C° 0 mm 1 mps 707 mmHg 18%
    10:00 +14°C° 0 mm 1 mps 707 mmHg 15%
    11:00 +16°C° 0 mm 1 mps 707 mmHg 13%
    12:00 +18°C° 0 mm 1 mps 707 mmHg 13%
    13:00 +18°C° 0 mm 1 mps 706 mmHg 13%
    14:00 +18°C° 0 mm 2 mps 706 mmHg 13%
    15:00 +17°C° 0 mm 2 mps 706 mmHg 14%
    16:00 +18°C° 0 mm 1 mps 706 mmHg 15%
    17:00 +16°C° 0 mm 1 mps 706 mmHg 17%
    18:00 +14°C° 0 mm 1 mps 707 mmHg 19%
    19:00 +13°C° 0 mm 1 mps 707 mmHg 21%
    20:00 +11°C° 0 mm 1 mps 708 mmHg 23%
    21:00 +11°C° 0 mm 1 mps 708 mmHg 23%
    22:00 +11°C° 0 mm 1 mps 708 mmHg 23%
    23:00 +10°C° 0 mm 1 mps 708 mmHg 23%

    25 January, Thursday

    Time Temperature Precipitation Wind Pressure Humidity
    00:00 +10°C° 0 mm 1 mps 708 mmHg 23%
    01:00 +10°C° 0 mm 1 mps 707 mmHg 23%
    02:00 +9°C° 0 mm 1 mps 707 mmHg 23%
    03:00 +9°C° 0 mm 1 mps 707 mmHg 23%
    04:00 +9°C° 0 mm 1 mps 707 mmHg 23%
    05:00 +9°C° 0 mm 1 mps 707 mmHg 23%
    06:00 +9°C° 0 mm 1 mps 707 mmHg 23%
    07:00 +9°C° 0 mm 1 mps 707 mmHg 23%
    08:00 +9°C° 0 mm 1 mps 708 mmHg 22%
    09:00 +11°C° 0 mm 1 mps 708 mmHg 20%
    10:00 +14°C° 0 mm 2 mps 708 mmHg 17%
    11:00 +16°C° 0 mm 2 mps 708 mmHg 15%
    12:00 +17°C° 0 mm 2 mps 707 mmHg 15%
    13:00 +17°C° 0 mm 2 mps 707 mmHg 15%
    14:00 +18°C° 0 mm 2 mps 706 mmHg 15%
    15:00 +17°C° 0 mm 2 mps 706 mmHg 16%
    16:00 +17°C° 0 mm 2 mps 706 mmHg 18%
    17:00 +16°C° 0 mm 1 mps 706 mmHg 19%
    18:00 +15°C° 0 mm 1 mps 707 mmHg 21%
    19:00 +14°C° 0 mm 2 mps 708 mmHg 23%
    20:00 +12°C° 0 mm 2 mps 708 mmHg 25%
    21:00 +12°C° 0 mm 2 mps 708 mmHg 26%
    22:00 +12°C° 0 mm 2 mps 708 mmHg 27%
    23:00 +10°C° 0 mm 2 mps 709 mmHg 29%

    26 January, Friday

    Time Temperature Precipitation Wind Pressure Humidity
    00:00 +10°C° 0 mm 2 mps 709 mmHg 29%
    01:00 +9°C° 0 mm 2 mps 708 mmHg 30%
    02:00 +9°C° 0 mm 2 mps 708 mmHg 31%
    03:00 +9°C° 0 mm 2 mps 709 mmHg 31%
    04:00 +8°C° 0 mm 2 mps 709 mmHg 31%
    05:00 +8°C° 0 mm 2 mps 709 mmHg 31%
    06:00 +8°C° 0 mm 2 mps 709 mmHg 31%
    07:00 +8°C° 0 mm 2 mps 709 mmHg 30%
    08:00 +8°C° 0 mm 2 mps 710 mmHg 30%
    09:00 +10°C° 0 mm 3 mps 710 mmHg 26%
    10:00 +12°C° 0 mm 3 mps 709 mmHg 22%
    11:00 +16°C° 0 mm 3 mps 709 mmHg 19%
    12:00 +16°C° 0 mm 3 mps 709 mmHg 18%
    13:00 +17°C° 0 mm 3 mps 708 mmHg 17%
    14:00 +18°C° 0 mm 3 mps 707 mmHg 16%
    15:00 +17°C° 0 mm 3 mps 707 mmHg 17%
    16:00 +17°C° 0 mm 2 mps 707 mmHg 18%
    17:00 +16°C° 0 mm 2 mps 707 mmHg 19%
    18:00 +15°C° 0 mm 2 mps 708 mmHg 21%
    19:00 +14°C° 0 mm 2 mps 708 mmHg 23%
    20:00 +12°C° 0 mm 2 mps 709 mmHg 25%
    21:00 +12°C° 0 mm 2 mps 709 mmHg 25%
    22:00 +10°C° 0 mm 2 mps 709 mmHg 25%
    23:00 +10°C° 0 mm 2 mps 709 mmHg 25%
    Show more